Location: Perryvale
(54.4667°N, 113.3833°W)
Time: 19:52:57
(UTC+00:00)

SR - Pass Details

Date: 20 May 2024
Orbit: 580 x 858 km, 66.7° (Epoch: 19 June)

Event Time Altitude Azimuth Distance (km) Brightness Sun altitude
Rises 05:46:26 0° 287° (WNW) 3,083 ? -12.2°
Reaches altitude 10° 05:49:29 10° 306° (NW) 2,109 ? -12.4°
Maximum altitude 05:52:50 19° 351° (N) 1,555 ? -12.6°
Drops below altitude 10° 05:56:02 10° 37° (NE) 2,002 ? -12.8°
Sets 05:58:51 0° 56° (NE) 2,870 ? -12.9°
